Regional Weather Roundup
Issued by NWS

Home | Current Version | Previous Version | Text Only | Print | Product List | Glossary On
Versions: 1 2 3 4 5 6 7 8 9 10 11 12 13 14 15 16 17 18 19 20 21 22 23 24 25 26 27 28 29 30 31 32 33 34 35 36 37 38 39 40 41 42 43 44 45 46 47 48 49 50
000
ASUS43 KLSX 260210
RWRMO

WEATHER SUMMARY FOR MISSOURI
NATIONAL WEATHER SERVICE SPRINGFIELD MO
900 PM CDT WED MAY 25 2016

NOTE: "FAIR" INDICATES FEW OR NO CLOUDS BELOW 12,000 FEET WITH NO
       SIGNIFICANT WEATHER AND/OR OBSTRUCTIONS TO VISIBILITY.
       CURRENT SKY AND/OR WEATHER CONDITIONS ARE NOT AVAILABLE FOR
       CHILLICOTHE AND FARMINGTON.

MOZ001>031-035>038-043-044-053-054-260300-
...NORTHERN AND WESTERN MISSOURI...

CITY           SKY/WX    TMP DP  RH WIND       PRES   REMARKS
KANSAS CTY INT MOCLDY    74  67  78 S8        29.86S
KANSAS C DTWN  CLOUDY    80  67  64 S8        29.84S
LEE`S SUMMIT   MOCLDY    78  68  71 S8        29.87R
ST JOSEPH      CLOUDY    76  67  73 S6        29.84S
CHILLICOTHE      N/A     76  68  76 CALM      29.88S
KIRKSVILLE     CLOUDY    73  64  73 S8        29.91R

$$
MOZ066>068-077>081-088>096-101>105-260300-
...SOUTHWEST MISSOURI...

CITY           SKY/WX    TMP DP  RH WIND       PRES   REMARKS
SPRINGFIELD    CLOUDY    75  66  73 SE14      29.95S
JOPLIN         CLEAR     77  71  82 S9G17     29.90S
BRANSON        PTCLDY    72  68  88 SE12      29.99S

$$
MOZ032>034-039>042-045>050-055>058-069>072-260300-
...CENTRAL MISSOURI...

CITY           SKY/WX    TMP DP  RH WIND       PRES   REMARKS
COLUMBIA       CLEAR     73  64  73 S7        29.93R
JEFFERSON CITY CLEAR     76  64  66 SE6       29.92R
ROLLA          CLEAR     71  64  78 S9        29.95S
SEDALIA        MOCLDY    75  66  73 S8        29.92R
WHITEMAN AFB   MOCLDY    76  69  76 S9        29.89R
WARRENSBURG    CLEAR     73  64  73 SE7       29.88S

$$
MOZ051-052-059>065-260300-
...EAST CENTRAL MISSOURI...

CITY           SKY/WX    TMP DP  RH WIND       PRES   REMARKS
ST LOUIS INTL  PTCLDY    79  62  56 S10       29.96R
SPIRIT OF STL  CLEAR     76  64  66 S6        29.94R
ST CHARLES     CLEAR     74  63  68 S7        29.94R

$$
MOZ072>076-082>087-097>100-106>115-260300-
...SOUTH CENTRAL AND SOUTHEAST MISSOURI...

CITY           SKY/WX    TMP DP  RH WIND       PRES   REMARKS
CAPE GIRARDEAU PTCLDY    69  66  90 S6        30.02F
FARMINGTON     CLEAR     71  67  87 S6        30.01S
POPLAR BLUFF   CLEAR     70  67  90 S7        30.02F
WEST PLAINS    MOCLDY    72  66  81 S8        30.03S

$$



USA.gov is the U.S. government's official web portal to all federal, state and local government web resources and services.